Zurück zum Katalog

STARLINK-33646

AktivKommunikationVLEO
NORAD 63280·PAYLOAD·🇺🇸 United States

Gestartet Mar 15, 2025 von Cape Canaveral Space Force Station

Loading…

Nächste Überflüge (nächste 24 Stunden)

TLE

AktuellSource: CelesTrak SupGP

Epoche: Sep 14, 2026, 22:33 UTC

1 63280C 25053R   26257.94006944  .00029951  00000+0  10851-2 0  2571
2 63280  43.0020 252.7714 0001293 259.2809 306.5555 15.27555415    18

Verfolge STARLINK-33646 in Echtzeit mit AllMySat

Download on the App Store